Time,TemperatureF,DewpointF,PressureIn,WindDirection,WindDirectionDegrees,WindSpeedMPH,WindSpeedGustMPH,Humidity,HourlyPrecipIn,Conditions,Clouds,dailyrainin,SoftwareType,DateUTC
2013-03-05 00:02:00,29.0,20.0,30.00,WNW,301,14.0,-999.0,70,-99.99,,,-99.99,,2013-03-05 05:02:00,
2013-03-05 00:12:00,29.0,20.0,30.00,WNW,301,14.0,-999.0,70,-99.99,,,-99.99,,2013-03-05 05:12:00,
2013-03-05 00:22:00,29.0,21.0,30.00,NW,310,13.0,-999.0,71,-99.99,,,-99.99,,2013-03-05 05:22:00,
2013-03-05 00:32:00,29.0,21.0,29.99,WNW,300,14.0,-999.0,71,-99.99,,,-99.99,,2013-03-05 05:32:00,
2013-03-05 00:42:00,29.0,21.0,29.99,WNW,300,14.0,-999.0,71,-99.99,,,-99.99,,2013-03-05 05:42:00,
2013-03-05 00:52:00,29.0,21.0,29.99,WNW,301,15.0,-999.0,71,-99.99,,,-99.99,,2013-03-05 05:52:00,
2013-03-05 01:01:00,28.0,20.0,29.99,WNW,297,15.0,-999.0,72,-99.99,,,-99.99,,2013-03-05 06:01:00,
2013-03-05 01:11:00,28.0,20.0,29.99,WNW,297,15.0,-999.0,72,-99.99,,,-99.99,,2013-03-05 06:11:00,
2013-03-05 01:22:00,29.0,21.0,30.00,WNW,302,15.0,-999.0,72,-99.99,,,-99.99,,2013-03-05 06:22:00,
2013-03-05 01:32:00,28.0,20.0,30.00,WNW,296,15.0,-999.0,72,-99.99,,,-99.99,,2013-03-05 06:32:00,
2013-03-05 01:42:00,28.0,20.0,30.00,WNW,296,15.0,-999.0,72,-99.99,,,-99.99,,2013-03-05 06:42:00,
2013-03-05 01:52:00,28.0,20.0,30.00,WNW,293,16.0,-999.0,73,-99.99,,,-99.99,,2013-03-05 06:52:00,
2013-03-05 02:01:00,28.0,20.0,30.00,West,275,15.0,-999.0,73,-99.99,,,-99.99,,2013-03-05 07:01:00,
2013-03-05 02:11:00,28.0,20.0,30.00,West,275,15.0,-999.0,73,-99.99,,,-99.99,,2013-03-05 07:11:00,
2013-03-05 02:22:00,28.0,20.0,30.01,West,281,13.0,-999.0,73,-99.99,,,-99.99,,2013-03-05 07:22:00,
2013-03-05 02:31:00,28.0,20.0,30.01,West,281,13.0,-999.0,73,-99.99,,,-99.99,,2013-03-05 07:31:00,
2013-03-05 02:42:00,28.0,20.0,30.01,West,281,13.0,-999.0,73,-99.99,,,-99.99,,2013-03-05 07:42:00,
2013-03-05 02:52:00,28.0,20.0,30.02,WNW,292,12.0,-999.0,73,-99.99,,,-99.99,,2013-03-05 07:52:00,
2013-03-05 03:02:00,28.0,21.0,30.02,West,281,11.0,-999.0,74,-99.99,,,-99.99,,2013-03-05 08:02:00,
2013-03-05 03:11:00,28.0,21.0,30.02,West,281,11.0,-999.0,74,-99.99,,,-99.99,,2013-03-05 08:11:00,
2013-03-05 03:21:00,28.0,21.0,30.02,West,275,12.0,-999.0,75,-99.99,,,-99.99,,2013-03-05 08:21:00,
2013-03-05 03:31:00,28.0,21.0,30.02,West,280,12.0,-999.0,75,-99.99,,,-99.99,,2013-03-05 08:31:00,
2013-03-05 03:41:00,28.0,21.0,30.02,West,280,12.0,-999.0,75,-99.99,,,-99.99,,2013-03-05 08:41:00,
2013-03-05 03:52:00,28.0,21.0,30.02,West,281,13.0,-999.0,75,-99.99,,,-99.99,,2013-03-05 08:52:00,
2013-03-05 04:01:00,28.0,21.0,30.02,WNW,285,12.0,-999.0,76,-99.99,,,-99.99,,2013-03-05 09:01:00,
2013-03-05 04:11:00,28.0,21.0,30.02,WNW,285,12.0,-999.0,76,-99.99,,,-99.99,,2013-03-05 09:11:00,
2013-03-05 04:21:00,27.0,20.0,30.03,West,274,12.0,-999.0,76,-99.99,,,-99.99,,2013-03-05 09:21:00,
2013-03-05 04:32:00,27.0,20.0,30.03,WNW,284,12.0,-999.0,76,-99.99,,,-99.99,,2013-03-05 09:32:00,
2013-03-05 04:43:00,27.0,20.0,30.03,WNW,284,12.0,-999.0,76,-99.99,,,-99.99,,2013-03-05 09:43:00,
2013-03-05 04:52:00,27.0,21.0,30.03,WNW,294,11.0,-999.0,77,-99.99,,,-99.99,,2013-03-05 09:52:00,
2013-03-05 05:01:00,27.0,21.0,30.03,WNW,287,11.0,-999.0,77,-99.99,,,-99.99,,2013-03-05 10:01:00,
2013-03-05 05:11:00,27.0,21.0,30.03,WNW,287,11.0,-999.0,77,-99.99,,,-99.99,,2013-03-05 10:11:00,
2013-03-05 05:22:00,27.0,21.0,30.03,West,279,11.0,-999.0,77,-99.99,,,-99.99,,2013-03-05 10:22:00,
2013-03-05 05:32:00,27.0,21.0,30.03,WNW,285,11.0,-999.0,78,-99.99,,,-99.99,,2013-03-05 10:32:00,
2013-03-05 05:42:00,27.0,21.0,30.03,WNW,285,11.0,-999.0,78,-99.99,,,-99.99,,2013-03-05 10:42:00,
2013-03-05 05:52:00,27.0,21.0,30.03,WNW,286,9.0,-999.0,78,-99.99,,,-99.99,,2013-03-05 10:52:00,
2013-03-05 06:01:00,27.0,21.0,30.04,WNW,282,11.0,-999.0,78,-99.99,,,-99.99,,2013-03-05 11:01:00,
2013-03-05 06:11:00,27.0,21.0,30.04,WNW,282,11.0,-999.0,78,-99.99,,,-99.99,,2013-03-05 11:11:00,
2013-03-05 06:22:00,27.0,21.0,30.04,West,281,7.0,-999.0,79,-99.99,,,-99.99,,2013-03-05 11:22:00,
2013-03-05 06:32:00,27.0,21.0,30.04,WNW,284,7.0,-999.0,79,-99.99,,,-99.99,,2013-03-05 11:32:00,
2013-03-05 06:42:00,27.0,21.0,30.04,WNW,284,7.0,-999.0,79,-99.99,,,-99.99,,2013-03-05 11:42:00,
2013-03-05 06:52:00,26.0,21.0,30.04,WNW,285,6.0,-999.0,80,-99.99,,,-99.99,,2013-03-05 11:52:00,
2013-03-05 07:02:00,26.0,21.0,30.04,WNW,294,6.0,-999.0,81,-99.99,,,-99.99,,2013-03-05 12:02:00,
2013-03-05 07:12:00,26.0,21.0,30.04,WNW,294,6.0,-999.0,81,-99.99,,,-99.99,,2013-03-05 12:12:00,
2013-03-05 07:22:00,27.0,22.0,30.04,WNW,299,6.0,-999.0,81,-99.99,,,-99.99,,2013-03-05 12:22:00,
2013-03-05 07:32:00,27.0,22.0,30.05,WNW,297,6.0,-999.0,81,-99.99,,,-99.99,,2013-03-05 12:32:00,
2013-03-05 07:42:00,27.0,22.0,30.05,WNW,297,6.0,-999.0,81,-99.99,,,-99.99,,2013-03-05 12:42:00,
2013-03-05 07:53:00,27.0,22.0,30.05,WNW,297,6.0,-999.0,81,-99.99,,,-99.99,,2013-03-05 12:53:00,
2013-03-05 08:02:00,28.0,22.0,30.05,WNW,302,8.0,-999.0,79,-99.99,,,-99.99,,2013-03-05 13:02:00,
2013-03-05 08:12:00,28.0,22.0,30.05,WNW,302,8.0,-999.0,79,-99.99,,,-99.99,,2013-03-05 13:12:00,
2013-03-05 08:22:00,29.0,23.0,30.05,NW,304,11.0,-999.0,78,-99.99,,,-99.99,,2013-03-05 13:22:00,
2013-03-05 08:32:00,29.0,23.0,30.05,NW,315,9.0,-999.0,77,-99.99,,,-99.99,,2013-03-05 13:32:00,
2013-03-05 08:42:00,29.0,23.0,30.05,NW,315,9.0,-999.0,77,-99.99,,,-99.99,,2013-03-05 13:42:00,
2013-03-05 08:52:00,30.0,24.0,30.05,NW,306,10.0,-999.0,77,-99.99,,,-99.99,,2013-03-05 13:52:00,
2013-03-05 09:02:00,30.0,23.0,30.06,NW,306,9.0,-999.0,76,-99.99,,,-99.99,,2013-03-05 14:02:00,
2013-03-05 09:11:00,30.0,23.0,30.06,NW,306,9.0,-999.0,76,-99.99,,,-99.99,,2013-03-05 14:11:00,
2013-03-05 09:22:00,31.0,24.0,30.05,WNW,300,9.0,-999.0,75,-99.99,,,-99.99,,2013-03-05 14:22:00,
2013-03-05 09:32:00,32.0,25.0,30.05,WNW,302,7.0,-999.0,74,-99.99,,,-99.99,,2013-03-05 14:32:00,
2013-03-05 09:42:00,32.0,25.0,30.05,WNW,302,7.0,-999.0,74,-99.99,,,-99.99,,2013-03-05 14:42:00,
2013-03-05 09:52:00,32.0,24.0,30.06,NW,306,7.0,-999.0,73,-99.99,,,-99.99,,2013-03-05 14:52:00,
2013-03-05 10:02:00,33.0,25.0,30.06,WNW,284,8.0,-999.0,72,-99.99,,,-99.99,,2013-03-05 15:02:00,
2013-03-05 10:11:00,33.0,25.0,30.06,WNW,284,8.0,-999.0,72,-99.99,,,-99.99,,2013-03-05 15:11:00,
2013-03-05 10:21:00,33.0,25.0,30.05,NW,314,7.0,-999.0,71,-99.99,,,-99.99,,2013-03-05 15:21:00,
2013-03-05 10:32:00,34.0,26.0,30.05,WNW,300,7.0,-999.0,71,-99.99,,,-99.99,,2013-03-05 15:32:00,
2013-03-05 10:42:00,34.0,26.0,30.05,WNW,300,7.0,-999.0,71,-99.99,,,-99.99,,2013-03-05 15:42:00,
2013-03-05 10:52:00,34.0,25.0,30.04,NNW,333,6.0,-999.0,70,-99.99,,,-99.99,,2013-03-05 15:52:00,
2013-03-05 11:01:00,35.0,26.0,30.04,NNW,343,6.0,-999.0,69,-99.99,,,-99.99,,2013-03-05 16:01:00,
2013-03-05 11:11:00,35.0,26.0,30.04,NNW,343,6.0,-999.0,69,-99.99,,,-99.99,,2013-03-05 16:11:00,
2013-03-05 11:22:00,35.0,26.0,30.04,WNW,299,5.0,-999.0,69,-99.99,,,-99.99,,2013-03-05 16:22:00,
2013-03-05 11:32:00,36.0,26.0,30.04,NNW,331,5.0,-999.0,68,-99.99,,,-99.99,,2013-03-05 16:32:00,
2013-03-05 11:42:00,36.0,26.0,30.04,NNW,331,5.0,-999.0,68,-99.99,,,-99.99,,2013-03-05 16:42:00,
2013-03-05 11:52:00,36.0,28.0,30.04,NW,326,5.0,-999.0,72,-99.99,,,-99.99,,2013-03-05 16:52:00,
2013-03-05 12:01:00,36.0,26.0,30.03,West,281,3.0,-999.0,68,-99.99,,,-99.99,,2013-03-05 17:01:00,
2013-03-05 12:11:00,36.0,26.0,30.03,West,281,3.0,-999.0,68,-99.99,,,-99.99,,2013-03-05 17:11:00,
2013-03-05 12:21:00,37.0,26.0,30.03,WNW,301,4.0,-999.0,65,-99.99,,,-99.99,,2013-03-05 17:21:00,
2013-03-05 12:32:00,37.0,27.0,30.02,WNW,300,5.0,-999.0,68,-99.99,,,-99.99,,2013-03-05 17:32:00,
2013-03-05 12:42:00,37.0,27.0,30.02,WNW,300,5.0,-999.0,68,-99.99,,,-99.99,,2013-03-05 17:42:00,
2013-03-05 12:53:00,38.0,27.0,30.03,WNW,301,5.0,-999.0,65,-99.99,,,-99.99,,2013-03-05 17:53:00,
2013-03-05 13:02:00,38.0,27.0,30.03,West,269,6.0,-999.0,64,-99.99,,,-99.99,,2013-03-05 18:02:00,
2013-03-05 13:11:00,38.0,27.0,30.03,West,269,6.0,-999.0,64,-99.99,,,-99.99,,2013-03-05 18:11:00,
2013-03-05 13:22:00,38.0,27.0,30.02,West,269,4.0,-999.0,64,-99.99,,,-99.99,,2013-03-05 18:22:00,
2013-03-05 13:32:00,39.0,28.0,30.02,WNW,284,4.0,-999.0,65,-99.99,,,-99.99,,2013-03-05 18:32:00,
2013-03-05 13:42:00,39.0,28.0,30.02,WNW,284,4.0,-999.0,65,-99.99,,,-99.99,,2013-03-05 18:42:00,
2013-03-05 13:53:00,39.0,28.0,30.02,WNW,284,4.0,-999.0,65,-99.99,,,-99.99,,2013-03-05 18:53:00,
2013-03-05 14:01:00,40.0,28.0,30.01,West,275,4.0,-999.0,61,-99.99,,,-99.99,,2013-03-05 19:01:00,
2013-03-05 14:11:00,40.0,28.0,30.01,West,275,4.0,-999.0,61,-99.99,,,-99.99,,2013-03-05 19:11:00,
2013-03-05 14:22:00,40.0,28.0,30.00,West,275,4.0,-999.0,62,-99.99,,,-99.99,,2013-03-05 19:22:00,
2013-03-05 14:32:00,41.0,29.0,29.99,West,278,2.0,-999.0,62,-99.99,,,-99.99,,2013-03-05 19:32:00,
2013-03-05 14:42:00,41.0,29.0,29.99,West,278,2.0,-999.0,62,-99.99,,,-99.99,,2013-03-05 19:42:00,
2013-03-05 14:52:00,42.0,29.0,29.98,West,279,3.0,-999.0,60,-99.99,,,-99.99,,2013-03-05 19:52:00,
2013-03-05 15:01:00,42.0,29.0,29.98,West,279,2.0,-999.0,59,-99.99,,,-99.99,,2013-03-05 20:01:00,
2013-03-05 15:11:00,42.0,29.0,29.97,WNW,284,3.0,-999.0,59,-99.99,,,-99.99,,2013-03-05 20:11:00,
2013-03-05 15:22:00,42.0,29.0,29.97,WNW,284,3.0,-999.0,59,-99.99,,,-99.99,,2013-03-05 20:22:00,
2013-03-05 15:32:00,42.0,29.0,29.96,NNW,333,3.0,-999.0,59,-99.99,,,-99.99,,2013-03-05 20:32:00,
2013-03-05 15:42:00,42.0,29.0,29.96,NNW,333,3.0,-999.0,59,-99.99,,,-99.99,,2013-03-05 20:42:00,
2013-03-05 15:52:00,43.0,30.0,29.96,NNE,25,5.0,-999.0,59,-99.99,,,-99.99,,2013-03-05 20:52:00,
2013-03-05 16:02:00,43.0,29.0,29.96,NNE,24,3.0,-999.0,57,-99.99,,,-99.99,,2013-03-05 21:02:00,
2013-03-05 16:11:00,43.0,29.0,29.96,NNE,24,3.0,-999.0,57,-99.99,,,-99.99,,2013-03-05 21:11:00,
2013-03-05 16:22:00,44.0,30.0,29.95,NE,49,1.0,-999.0,57,-99.99,,,-99.99,,2013-03-05 21:22:00,
2013-03-05 16:32:00,44.0,29.0,29.95,ESE,110,4.0,-999.0,56,-99.99,,,-99.99,,2013-03-05 21:32:00,
2013-03-05 16:42:00,44.0,29.0,29.95,ESE,110,4.0,-999.0,56,-99.99,,,-99.99,,2013-03-05 21:42:00,
2013-03-05 16:52:00,44.0,29.0,29.95,East,96,4.0,-999.0,55,-99.99,,,-99.99,,2013-03-05 21:52:00,
2013-03-05 17:01:00,44.0,28.0,29.96,ENE,69,3.0,-999.0,54,-99.99,,,-99.99,,2013-03-05 22:01:00,
2013-03-05 17:11:00,44.0,28.0,29.96,ENE,69,3.0,-999.0,54,-99.99,,,-99.99,,2013-03-05 22:11:00,
2013-03-05 17:22:00,44.0,29.0,29.96,ENE,78,4.0,-999.0,55,-99.99,,,-99.99,,2013-03-05 22:22:00,
2013-03-05 17:32:00,43.0,28.0,29.96,ESE,102,4.0,-999.0,55,-99.99,,,-99.99,,2013-03-05 22:32:00,
2013-03-05 17:42:00,43.0,28.0,29.96,ESE,102,4.0,-999.0,55,-99.99,,,-99.99,,2013-03-05 22:42:00,
2013-03-05 17:52:00,43.0,28.0,29.97,ESE,102,4.0,-999.0,56,-99.99,,,-99.99,,2013-03-05 22:52:00,
2013-03-05 18:01:00,42.0,27.0,29.97,ESE,102,4.0,-999.0,55,-99.99,,,-99.99,,2013-03-05 23:01:00,
2013-03-05 18:11:00,42.0,27.0,29.97,ESE,102,4.0,-999.0,55,-99.99,,,-99.99,,2013-03-05 23:11:00,
2013-03-05 18:21:00,41.0,27.0,29.97,ESE,102,4.0,-999.0,57,-99.99,,,-99.99,,2013-03-05 23:21:00,
2013-03-05 18:32:00,41.0,28.0,29.97,ESE,102,5.0,-999.0,59,-99.99,,,-99.99,,2013-03-05 23:32:00,
2013-03-05 18:42:00,41.0,28.0,29.97,ESE,102,5.0,-999.0,59,-99.99,,,-99.99,,2013-03-05 23:42:00,
2013-03-05 18:53:00,40.0,27.0,29.97,ESE,102,3.0,-999.0,60,-99.99,,,-99.99,,2013-03-05 23:53:00,
2013-03-05 19:01:00,40.0,28.0,29.97,ESE,102,2.0,-999.0,61,-99.99,,,-99.99,,2013-03-06 00:01:00,
2013-03-05 19:11:00,40.0,28.0,29.97,ESE,102,2.0,-999.0,61,-99.99,,,-99.99,,2013-03-06 00:11:00,
2013-03-05 19:21:00,39.0,27.0,29.97,ESE,102,2.0,-999.0,62,-99.99,,,-99.99,,2013-03-06 00:21:00,
2013-03-05 19:32:00,39.0,27.0,29.97,ESE,102,2.0,-999.0,62,-99.99,,,-99.99,,2013-03-06 00:32:00,
2013-03-05 19:42:00,39.0,27.0,29.97,ESE,102,2.0,-999.0,62,-99.99,,,-99.99,,2013-03-06 00:42:00,
2013-03-05 19:52:00,38.0,27.0,29.96,ESE,102,4.0,-999.0,63,-99.99,,,-99.99,,2013-03-06 00:52:00,
2013-03-05 20:02:00,38.0,27.0,29.96,ESE,102,3.0,-999.0,65,-99.99,,,-99.99,,2013-03-06 01:02:00,
2013-03-05 20:11:00,38.0,27.0,29.96,ESE,102,3.0,-999.0,65,-99.99,,,-99.99,,2013-03-06 01:11:00,
2013-03-05 20:21:00,37.0,26.0,29.95,ESE,102,2.0,-999.0,65,-99.99,,,-99.99,,2013-03-06 01:21:00,
2013-03-05 20:32:00,37.0,27.0,29.96,ESE,102,2.0,-999.0,66,-99.99,,,-99.99,,2013-03-06 01:32:00,
2013-03-05 20:42:00,37.0,27.0,29.96,ESE,102,2.0,-999.0,66,-99.99,,,-99.99,,2013-03-06 01:42:00,
2013-03-05 20:52:00,37.0,27.0,29.96,ESE,102,0.0,-999.0,67,-99.99,,,-99.99,,2013-03-06 01:52:00,
2013-03-05 21:01:00,37.0,27.0,29.96,ESE,102,3.0,-999.0,67,-99.99,,,-99.99,,2013-03-06 02:01:00,
2013-03-05 21:11:00,37.0,27.0,29.96,ESE,102,3.0,-999.0,67,-99.99,,,-99.99,,2013-03-06 02:11:00,
2013-03-05 21:22:00,36.0,28.0,29.96,ESE,108,10.0,-999.0,71,-99.99,,,-99.99,,2013-03-06 02:22:00,
2013-03-05 21:32:00,35.0,28.0,29.95,ESE,113,9.0,-999.0,76,-99.99,,,-99.99,,2013-03-06 02:32:00,
2013-03-05 21:42:00,35.0,28.0,29.95,ESE,113,9.0,-999.0,76,-99.99,,,-99.99,,2013-03-06 02:42:00,
2013-03-05 21:52:00,34.0,28.0,29.95,ESE,111,8.0,-999.0,80,-99.99,,,-99.99,,2013-03-06 02:52:00,
2013-03-05 22:02:00,34.0,29.0,29.95,ESE,107,8.0,-999.0,82,-99.99,,,-99.99,,2013-03-06 03:02:00,
2013-03-05 22:11:00,34.0,29.0,29.95,ESE,107,8.0,-999.0,82,-99.99,,,-99.99,,2013-03-06 03:11:00,
2013-03-05 22:22:00,34.0,30.0,29.94,East,87,8.0,-999.0,85,-99.99,,,-99.99,,2013-03-06 03:22:00,
2013-03-05 22:32:00,33.0,30.0,29.93,East,98,9.0,-999.0,87,-99.99,,,-99.99,,2013-03-06 03:32:00,
2013-03-05 22:42:00,33.0,30.0,29.93,East,98,9.0,-999.0,87,-99.99,,,-99.99,,2013-03-06 03:42:00,
2013-03-05 22:52:00,33.0,30.0,29.92,East,86,8.0,-999.0,87,-99.99,,,-99.99,,2013-03-06 03:52:00,
2013-03-05 23:02:00,33.0,29.0,29.92,East,96,9.0,-999.0,85,-99.99,,,-99.99,,2013-03-06 04:02:00,
2013-03-05 23:11:00,33.0,29.0,29.92,East,96,9.0,-999.0,85,-99.99,,,-99.99,,2013-03-06 04:11:00,
2013-03-05 23:22:00,33.0,29.0,29.92,East,96,9.0,-999.0,85,-99.99,,,-99.99,,2013-03-06 04:22:00,
2013-03-05 23:32:00,33.0,29.0,29.91,East,100,6.0,-999.0,84,-99.99,,,-99.99,,2013-03-06 04:32:00,
2013-03-05 23:42:00,33.0,29.0,29.91,East,100,6.0,-999.0,84,-99.99,,,-99.99,,2013-03-06 04:42:00,
2013-03-05 23:52:00,32.0,27.0,29.91,East,97,6.0,-999.0,83,-99.99,,,-99.99,,2013-03-06 04:52:00,